FW4010 Weather Reports


time (UTC)temp
C
wind
direction
speed
KPH
gust
KPH
rain 1hr
cm
rain 24hr
cm
rain mn
cm
humidity
%
barometer
mb
20260507104526 3 360 4.8 14.5 0.00 1.02 0.00 85 1018.0
20260507103023 3 360 3.2 9.7 0.00 1.02 0.00 85 1017.9
20260507101525 3 360 4.8 12.9 0.00 1.02 0.00 87 1017.9
20260507094519 3 360 1.6 8.0 0.03 1.02 0.00 87 1017.8
20260507093025 3 360 4.8 8.0 0.03 1.02 1.02 88 1017.7
20260507091531 3 360 4.8 8.0 0.03 1.02 1.02 89 1017.7
20260507084520 3 360 3.2 9.7 0.03 0.99 0.99 90 1017.6
20260507083015 3 360 1.6 8.0 0.08 0.99 0.99 90 1017.4
20260507081517 3 360 4.8 9.7 0.08 0.99 0.99 90 1017.4
20260507074514 3 360 0.0 6.4 0.13 0.97 0.97 91 1017.3
20260507073012 3 360 4.8 9.7 0.13 0.91 0.91 91 1017.2
20260507071511 3 360 4.8 12.9 0.20 0.91 0.91 92 1016.9
20260507064511 3 360 0.0 0.0 0.20 0.84 0.84 92 1016.8
20260507063024 3 360 1.6 9.7 0.20 0.79 0.79 92 1016.7
20260507061509 3 360 3.2 6.4 0.18 0.71 0.71 92 1016.5
20260507054505 3 175 0.0 0.0 0.13 0.64 0.64 93 1016.2
20260507053006 4 360 0.0 0.0 0.10 0.61 0.61 93 1016.0
20260507051505 4 360 0.0 0.0 0.13 0.56 0.56 92 1016.0
20260507044504 3 360 0.0 4.8 0.36 0.51 0.51 91 1016.0
20260507043004 3 360 3.2 6.4 0.38 0.51 0.51 91 1015.8
20260507041503 3 171 4.8 11.3 0.36 0.46 0.46 89 1016.1
20260507034541 5 211 3.2 16.1 0.08 0.18 0.18 86 1015.5
20260507021601 7 171 3.2 11.3 0.03 0.03 0.03 79 1014.4
20260507020059 7 207 1.6 11.3 0.03 0.03 0.03 78 1014.4
20260507014602 8 9 0.0 3.2 0.00 0.00 0.00 72 1014.3
20260507011506 7 200 3.2 8.0 0.00 0.00 0.00 77 1014.4
20260507010002 7 211 3.2 8.0 0.00 0.00 0.00 76 1014.4
20260507004501 7 212 3.2 11.3 0.00 0.00 0.00 77 1014.4
20260507001558 7 251 1.6 6.4 0.00 0.00 0.00 79 1014.2
20260507000056 7 154 0.0 9.7 0.00 0.00 0.00 79 1014.2
20260506234554 7 226 0.0 6.4 0.00 0.00 0.00 80 1014.2
20260506231558 6 237 1.6 6.4 0.00 0.00 0.00 82 1013.7
20260506230058 7 267 0.0 12.9 0.00 0.00 0.00 78 1013.9
20260506224552 8 223 4.8 11.3 0.00 0.00 0.00 71 1013.6
20260506221555 7 215 4.8 11.3 0.00 0.00 0.00 70 1013.4
20260506220048 7 229 6.4 14.5 0.00 0.00 0.00 70 1013.4
20260506214545 7 215 6.4 14.5 0.00 0.00 0.00 67 1013.2
20260506211544 9 172 3.2 11.3 0.00 0.00 0.00 62 1012.8
20260506210042 9 202 0.0 6.4 0.00 0.00 0.00 64 1012.8
20260506204540 9 286 1.6 14.5 0.00 0.00 0.00 66 1012.7
20260506201540 8 137 1.6 9.7 0.00 0.00 0.00 68 1012.3
20260506200042 8 219 1.6 8.0 0.00 0.00 0.00 71 1012.3
20260506194539 8 282 3.2 11.3 0.00 0.00 0.00 73 1012.2
20260506191532 7 216 1.6 6.4 0.00 0.00 0.00 76 1012.2
20260506190031 7 221 1.6 4.8 0.00 0.00 0.00 76 1012.2
20260506184530 7 220 0.0 6.4 0.00 0.00 0.00 73 1012.2
20260506181527 6 209 0.0 0.0 0.00 0.00 0.00 77 1012.1
20260506180026 6 250 0.0 9.7 0.00 0.00 0.00 75 1012.0
20260506174522 6 309 0.0 0.0 0.00 0.00 0.00 76 1012.0
20260506171522 5 136 1.6 6.4 0.00 0.00 0.00 78 1011.9
20260506170019 5 360 0.0 4.8 0.00 0.00 0.00 79 1011.9
20260506164518 5 360 1.6 6.4 0.00 0.00 0.00 79 1011.8
20260506161513 5 292 0.0 4.8 0.00 0.00 0.00 79 1011.6
20260506160016 4 360 0.0 4.8 0.00 0.00 0.00 81 1011.5
20260506154509 4 360 1.6 4.8 0.00 0.00 0.00 81 1011.4
20260506151509 3 360 0.0 0.0 0.00 0.00 0.00 82 1011.4
20260506150006 3 360 0.0 3.2 0.00 0.00 0.00 82 1011.2
20260506144503 3 360 0.0 0.0 0.00 0.00 0.00 83 1011.0
20260506141612 3 360 0.0 0.0 0.00 0.00 0.00 82 1011.1
20260506140059 3 360 0.0 0.0 0.00 0.00 0.00 82 1011.0
20260506134558 3 360 0.0 0.0 0.00 0.00 0.00 82 1011.0
20260506131557 4 360 0.0 0.0 0.00 0.00 0.00 81 1010.8
20260506130056 4 360 0.0 8.0 0.00 0.00 0.00 82 1010.7
20260506124554 3 360 0.0 6.4 0.00 0.00 0.00 82 1010.7
20260506123052 3 169 3.2 12.9 0.00 0.00 0.00 83 1010.7
20260506121559 3 126 0.0 4.8 0.00 0.00 0.00 83 1010.5
20260506114549 3 360 0.0 1.6 0.00 0.00 0.00 84 1010.4
20260506113048 3 360 1.6 8.0 0.00 0.00 0.00 84 1010.2
20260506111546 3 360 6.4 14.5 0.00 0.00 0.00 83 1010.2
20260506110145 3 360 6.4 17.7 0.00 0.00 0.00 83 1010.2